Weather History for Port Heiden, AK

Change the Weather History Date:

Sunday, July 6, 2014

  Actual Average Record
Temperature  
Mean Temperature 50 °F -  
Max Temperature 60 °F 55 °F 64 °F (2008)
Min Temperature 39 °F 43 °F 39 °F (2014)
Degree Days  
Heating Degree Days 16    
Moisture  
Dew Point 42 °F    
Average Humidity 73    
Maximum Humidity 87    
Minimum Humidity 55    
Precipitation  
Precipitation 0.00 in - - ()
Sea Level Pressure  
Sea Level Pressure 29.88 in    
Wind  
Wind Speed 4 mph (ESE)    
Max Wind Speed 17 mph    
Max Gust Speed 18 mph    
Visibility 7 miles    
Events      
Averages and records for this station are not official NWS values.
T = Trace of Precipitation, MM = Missing Value Source: NWS Daily Summary

Daily Weather History Graph

Daily Weather History Graph

Search for Another Location

Airport:

Trip Planner

Search our weather history database for the weather conditions in past years. The results will help you decide how hot, cold, wet, or windy it might be!

Date:

Astronomy

Jul. 06, 2014 Rise Set
Actual Time 5:50 AM AKDT 11:27 PM AKDT
Civil Twilight 4:46 AM AKDT 12:30 AM AKDT
Nautical Twilight 3:11 AM AKDT 2:07 AM AKDT
Astronomical Twilight Sun does not rise Sun does not rise
Moon 4:54 PM AKDT (7/6) 2:08 AM AKDT (7/6)
Length of Visible Light 19h 44m
Length of Day
17h 36m
Waxing Gibbous, 63% of the Moon is Illuminated
Jul 6
Waxing Gibbous
Jul 12
Full
Jul 18
Last Quarter
Jul 26
New
Aug 3
First Quarter

Hourly Weather History & Observations

Time (AKDT) Temp. Windchill Dew Point Humidity Pressure Visibility Wind Dir Wind Speed Gust Speed Precip Events Conditions
12:16 AM 48.2 °F - 42.8 °F 82% 29.88 in 10.0 mi NW 3.5 mph - N/A   Clear
12:36 AM 46.4 °F - 39.2 °F 76% 29.88 in 2.0 mi Calm Calm - N/A   Clear
12:56 AM 44.6 °F - 39.2 °F 81% 29.88 in 0.5 mi Calm Calm - N/A   Unknown
1:16 AM 44.6 °F - 39.2 °F 81% 29.88 in 0.5 mi Calm Calm - N/A   Unknown
1:36 AM 44.6 °F 43.1 °F 37.4 °F 76% 29.89 in 0.2 mi SE 3.5 mph - N/A   Unknown
1:56 AM 42.8 °F - 37.4 °F 81% 29.89 in 0.2 mi Calm Calm - N/A   Overcast
2:16 AM 42.8 °F - 37.4 °F 81% 29.88 in 0.2 mi Calm Calm - N/A   Overcast
2:36 AM 42.8 °F - 37.4 °F 81% 29.88 in 0.2 mi Calm Calm - N/A   Overcast
2:56 AM 42.8 °F 40.1 °F 37.4 °F 81% 29.88 in 0.2 mi East 4.6 mph - N/A   Overcast
3:16 AM 42.8 °F 41.1 °F 37.4 °F 81% 29.88 in 0.2 mi East 3.5 mph - N/A   Overcast
3:36 AM 44.6 °F - 39.2 °F 81% 29.88 in 0.8 mi Calm Calm - N/A   Mostly Cloudy
3:56 AM 44.6 °F - 39.2 °F 81% 29.88 in 0.2 mi Calm Calm - N/A   Unknown
4:16 AM 44.6 °F - 37.4 °F 76% 29.88 in 0.2 mi Calm Calm - N/A   Overcast
4:36 AM 42.8 °F - 37.4 °F 81% 29.88 in 0.5 mi Calm Calm - N/A   Overcast
4:56 AM 39.2 °F 37.0 °F 35.6 °F 87% 29.89 in 0.2 mi SE 3.5 mph - N/A   Overcast
5:16 AM 39.2 °F 37.0 °F 33.8 °F 81% 29.88 in 0.2 mi SSE 3.5 mph - N/A   Overcast
5:36 AM 39.2 °F 37.0 °F 33.8 °F 81% 29.88 in 0.5 mi SSE 3.5 mph - N/A   Overcast
5:56 AM 39.2 °F 35.0 °F 35.6 °F 87% 29.88 in 0.2 mi SE 5.8 mph - N/A   Overcast
6:16 AM 41.0 °F 39.0 °F 35.6 °F 81% 29.88 in 0.2 mi ESE 3.5 mph - N/A   Overcast
6:36 AM 42.8 °F 41.1 °F 37.4 °F 81% 29.88 in 0.2 mi SSE 3.5 mph - N/A   Overcast
6:56 AM 42.8 °F 41.1 °F 37.4 °F 81% 29.88 in 0.5 mi SE 3.5 mph - N/A   Overcast
7:16 AM 44.6 °F - 39.2 °F 81% 29.88 in 1.8 mi Calm Calm - N/A   Overcast
7:36 AM 46.4 °F - 39.2 °F 76% 29.87 in 9.0 mi Calm Calm - N/A   Overcast
7:56 AM 46.4 °F - 42.8 °F 87% 29.87 in 10.0 mi Calm Calm - N/A   Overcast
8:16 AM 48.2 °F - 42.8 °F 82% 29.88 in 10.0 mi Calm Calm - N/A   Overcast
8:36 AM 48.2 °F - 42.8 °F 82% 29.88 in 10.0 mi Calm Calm - N/A   Overcast
8:56 AM 48.2 °F - 42.8 °F 82% 29.88 in 10.0 mi ENE 3.5 mph - N/A   Overcast
9:16 AM 48.2 °F - 42.8 °F 82% 29.88 in 10.0 mi NNE 5.8 mph - N/A   Overcast
9:36 AM 48.2 °F - 42.8 °F 82% 29.88 in 10.0 mi NNE 4.6 mph - N/A   Overcast
9:56 AM 50.0 °F - 42.8 °F 76% 29.89 in 10.0 mi NE 4.6 mph - N/A   Overcast
10:16 AM 50.0 °F - 44.6 °F 82% 29.89 in 10.0 mi NE 6.9 mph - N/A   Overcast
10:36 AM 51.8 °F - 44.6 °F 76% 29.89 in 10.0 mi NE 5.8 mph - N/A   Overcast
10:56 AM 51.8 °F - 44.6 °F 76% 29.89 in 10.0 mi NE 4.6 mph - N/A   Overcast
11:16 AM 51.8 °F - 44.6 °F 76% 29.89 in 5.0 mi ENE 6.9 mph - N/A   Overcast
11:36 AM 50.0 °F - 42.8 °F 76% 29.89 in 4.0 mi ENE 3.5 mph - N/A   Overcast
11:56 AM 50.0 °F - 44.6 °F 82% 29.90 in 5.0 mi Calm Calm - N/A   Overcast
12:16 PM 50.0 °F - 44.6 °F 82% 29.89 in 5.0 mi NNE 3.5 mph - N/A   Overcast
12:36 PM 51.8 °F - 44.6 °F 76% 29.90 in 10.0 mi North 3.5 mph - N/A   Overcast
12:56 PM 51.8 °F - 44.6 °F 76% 29.90 in 5.0 mi Calm Calm - N/A   Overcast
1:16 PM 51.8 °F - 46.4 °F 82% 29.90 in 5.0 mi Calm Calm - N/A   Overcast
1:36 PM 53.6 °F - 46.4 °F 77% 29.90 in 7.0 mi Calm Calm - N/A   Overcast
1:56 PM 53.6 °F - 46.4 °F 77% 29.89 in 10.0 mi SSE 8.1 mph - N/A   Overcast
2:16 PM 55.4 °F - 46.4 °F 72% 29.89 in 10.0 mi SSE 5.8 mph - N/A   Overcast
2:36 PM 55.4 °F - 46.4 °F 72% 29.89 in 10.0 mi SSE 3.5 mph - N/A   Overcast
2:56 PM 55.4 °F - 46.4 °F 72% 29.89 in 10.0 mi ENE 3.5 mph - N/A   Overcast
3:16 PM 57.2 °F - 46.4 °F 67% 29.89 in 10.0 mi East 3.5 mph - N/A   Overcast
3:36 PM 57.2 °F - 46.4 °F 67% 29.89 in 10.0 mi ENE 4.6 mph - N/A   Overcast
3:56 PM 57.2 °F - 48.2 °F 72% 29.89 in 10.0 mi NE 6.9 mph - N/A   Overcast
4:16 PM 57.2 °F - 46.4 °F 67% 29.89 in 10.0 mi NE 4.6 mph - N/A   Overcast
4:36 PM 57.2 °F - 46.4 °F 67% 29.89 in 10.0 mi Calm Calm - N/A   Overcast
4:56 PM 57.2 °F - 46.4 °F 67% 29.89 in 10.0 mi East 6.9 mph 16.1 mph N/A   Overcast
5:16 PM 57.2 °F - 46.4 °F 67% 29.88 in 10.0 mi SE 13.8 mph - N/A   Overcast
5:36 PM 57.2 °F - 44.6 °F 63% 29.88 in 10.0 mi SSE 15.0 mph - N/A   Mostly Cloudy
5:56 PM 57.2 °F - 46.4 °F 67% 29.88 in 10.0 mi SSE 11.5 mph - N/A   Mostly Cloudy
6:16 PM 57.2 °F - 46.4 °F 67% 29.88 in 10.0 mi SSE 13.8 mph - N/A   Overcast
6:36 PM 60.8 °F - 44.6 °F 55% 29.87 in 10.0 mi ESE 17.3 mph - N/A   Overcast
6:56 PM 60.8 °F - 44.6 °F 55% 29.87 in 10.0 mi ESE 15.0 mph - N/A   Mostly Cloudy
7:16 PM 59.0 °F - 44.6 °F 59% 29.87 in 10.0 mi SE 13.8 mph 18.4 mph N/A   Overcast
7:36 PM 60.8 °F - 44.6 °F 55% 29.87 in 10.0 mi SE 17.3 mph - N/A   Mostly Cloudy
7:56 PM 60.8 °F - 44.6 °F 55% 29.87 in 10.0 mi SE 16.1 mph - N/A   Mostly Cloudy
8:16 PM 60.8 °F - 44.6 °F 55% 29.87 in 10.0 mi SE 13.8 mph - N/A   Overcast
8:36 PM 59.0 °F - 44.6 °F 59% 29.87 in 10.0 mi SE 13.8 mph - N/A   Overcast
8:56 PM 57.2 °F - 42.8 °F 59% 29.87 in 10.0 mi SSE 12.7 mph - N/A   Mostly Cloudy
9:16 PM 57.2 °F - 44.6 °F 63% 29.87 in 10.0 mi South 11.5 mph - N/A   Mostly Cloudy
9:36 PM 55.4 °F - 44.6 °F 67% 29.87 in 10.0 mi SSE 8.1 mph - N/A   Mostly Cloudy
9:56 PM 55.4 °F - 44.6 °F 67% 29.88 in 10.0 mi SE 5.8 mph - N/A   Mostly Cloudy
10:16 PM 55.4 °F - 42.8 °F 63% 29.88 in 10.0 mi SE 5.8 mph - N/A   Mostly Cloudy
10:36 PM 53.6 °F - 42.8 °F 67% 29.88 in 10.0 mi East 6.9 mph - N/A   Overcast
10:56 PM 55.4 °F - 42.8 °F 63% 29.88 in 10.0 mi SE 6.9 mph - N/A   Overcast
11:16 PM 53.6 °F - 42.8 °F 67% 29.88 in 10.0 mi SSE 3.5 mph - N/A   Overcast
11:36 PM 53.6 °F - 42.8 °F 67% 29.87 in 10.0 mi South 4.6 mph - N/A   Overcast
11:56 PM 51.8 °F - 41.0 °F 67% 29.87 in 10.0 mi SSE 9.2 mph - N/A   Mostly Cloudy